Weather History for Spangdahlem, Germany

Change the Weather History Date:

Monday, November 25, 2013

  Actual Average (ELLX) Record (ELLX)
Temperature  
Mean Temperature 38 °F -  
Max Temperature 46 °F 41 °F 60 °F (2006)
Min Temperature 29 °F 34 °F 21 °F (1998)
Degree Days  
Heating Degree Days 28    
Moisture  
Dew Point 30 °F    
Average Humidity 78    
Maximum Humidity 87    
Minimum Humidity 57    
Precipitation  
Precipitation 0.00 in - - ()
Sea Level Pressure  
Sea Level Pressure 30.39 in    
Wind  
Wind Speed 5 mph ()    
Max Wind Speed 10 mph    
Max Gust Speed -    
Visibility 6.2 miles    
Events Rain    
Averages and records for this station are not official NWS values.
T = Trace of Precipitation, MM = Missing Value Source: Averaged Metar Reports

Daily Weather History Graph

Daily Weather History Graph

Search for Another Location

Airport:

Trip Planner

Search our weather history database for the weather conditions in past years. The results will help you decide how hot, cold, wet, or windy it might be!

Date:

Astronomy

Nov. 25, 2013 Rise Set
Actual Time 8:01 AM CET 4:38 PM CET
Civil Twilight 7:24 AM CET 5:15 PM CET
Nautical Twilight 6:44 AM CET 5:55 PM CET
Astronomical Twilight 6:05 AM CET 6:34 PM CET
Moon No Moon Rise 12:49 PM CET (11/25)
Length of Visible Light 9h 50m
Length of Day
8h 37m
Waning Gibbous, 53% of the Moon is Illuminated
Nov 25
Waning Gibbous
Nov 25
Last Quarter
Dec 3
New
Dec 9
First Quarter
Dec 17
Full

Hourly Weather History & Observations

Time (CET) Temp. Windchill Dew Point Humidity Pressure Visibility Wind Dir Wind Speed Gust Speed Precip Events Conditions
12:35 AM 35.6 °F 29.2 °F 26.6 °F 70% 30.31 in 6.2 mi NNE 8.1 mph - N/A   Scattered Clouds
12:58 AM 34.3 °F 28.4 °F 25.9 °F 71% 30.33 in 6.2 mi NNE 6.9 mph - N/A   Clear
1:58 AM 33.4 °F - 26.4 °F 75% 30.34 in 6.2 mi NNE 2.3 mph - N/A   Partly Cloudy
2:58 AM 31.1 °F - 25.9 °F 81% 30.36 in 6.2 mi East 2.3 mph - N/A   Partly Cloudy
3:58 AM 30.4 °F - 26.1 °F 84% 30.37 in 6.2 mi WNW 2.3 mph - N/A   Clear
4:58 AM 30.4 °F 26.9 °F 25.3 °F 82% 30.39 in 6.2 mi WNW 3.5 mph - N/A   Clear
5:32 AM 30.2 °F - 26.6 °F 86% 30.36 in 6.2 mi NW 2.3 mph - N/A   Mostly Cloudy
5:47 AM 30.2 °F - 24.8 °F 80% 30.36 in 6.2 mi NW 1.2 mph - N/A   Scattered Clouds
5:58 AM 29.7 °F - 25.3 °F 84% 30.39 in 6.2 mi Calm Calm - N/A   Scattered Clouds
6:32 AM 30.2 °F 25.4 °F 24.8 °F 80% 30.37 in 6.2 mi NW 4.6 mph - N/A   Mostly Cloudy
6:58 AM 30.7 °F - 26.2 °F 83% 30.40 in 6.2 mi North 1.2 mph - N/A   Overcast
7:58 AM 30.7 °F 26.0 °F 26.8 °F 85% 30.41 in 6.2 mi NW 4.6 mph - N/A   Mostly Cloudy
8:58 AM 32.5 °F 29.3 °F 28.0 °F 83% 30.42 in 6.2 mi West 3.5 mph - N/A   Mostly Cloudy
8:59 AM 32.0 °F 28.7 °F 28.4 °F 87% 30.39 in 6.2 mi West 3.5 mph - N/A   Scattered Clouds
9:20 AM 33.8 °F 29.6 °F 28.4 °F 81% 30.40 in 6.2 mi West 4.6 mph - N/A   Partly Cloudy
9:44 AM 33.8 °F - 30.2 °F 87% 30.41 in 6.2 mi NNW 2.3 mph - N/A   Mostly Cloudy
9:58 AM 34.3 °F 28.4 °F 28.4 °F 79% 30.43 in 6.2 mi WNW 6.9 mph - N/A   Mostly Cloudy
10:11 AM 35.6 °F 31.7 °F 28.4 °F 75% 30.40 in 6.2 mi WSW 4.6 mph - N/A   Scattered Clouds
10:36 AM 35.6 °F 32.8 °F 30.2 °F 81% 30.41 in 6.2 mi WSW 3.5 mph - N/A   Mostly Cloudy
10:58 AM 35.6 °F - 29.8 °F 80% 30.43 in 6.2 mi WSW 2.3 mph - N/A   Overcast
11:05 AM 35.6 °F - 30.2 °F 81% 30.41 in 6.2 mi SW 2.3 mph - N/A   Overcast
11:22 AM 35.6 °F 31.7 °F 32.0 °F 87% 30.41 in 6.2 mi WSW 4.6 mph - N/A   Overcast
11:58 AM 36.7 °F - 30.6 °F 78% 30.42 in 6.2 mi West 2.3 mph - N/A   Overcast
12:44 PM 37.4 °F 34.9 °F 32.0 °F 81% 30.39 in 6.2 mi West 3.5 mph - N/A Rain Light Rain
12:58 PM 38.1 °F 32.9 °F 31.8 °F 78% 30.42 in 6.2 mi WNW 6.9 mph - 0.00 in   Light Drizzle
12:59 PM 39.2 °F 33.6 °F 32.0 °F 75% 30.39 in 6.2 mi WNW 8.1 mph - N/A   Overcast
1:13 PM 37.4 °F 33.8 °F 32.0 °F 81% 30.39 in 6.2 mi NW 4.6 mph - N/A Rain Light Rain
1:22 PM 37.4 °F 34.9 °F 32.0 °F 81% 30.39 in 5.6 mi NW 3.5 mph - N/A Rain Light Rain
1:28 PM 37.4 °F 33.8 °F 32.0 °F 81% 30.39 in 6.2 mi West 4.6 mph - N/A   Overcast
1:40 PM 37.4 °F 33.8 °F 32.0 °F 81% 30.38 in 6.2 mi WNW 4.6 mph - N/A   Overcast
1:42 PM 37.4 °F 31.4 °F 32.0 °F 81% 30.38 in 6.2 mi WNW 8.1 mph - N/A   Overcast
1:58 PM 37.9 °F 33.5 °F 32.4 °F 80% 30.42 in 6.2 mi West 5.8 mph - 0.00 in   Overcast
2:19 PM 37.4 °F 32.8 °F 32.0 °F 81% 30.38 in 6.2 mi West 5.8 mph - N/A   Overcast
2:27 PM 39.2 °F 35.0 °F 32.0 °F 75% 30.38 in 6.2 mi West 5.8 mph - N/A   Overcast
2:38 PM 39.2 °F 33.6 °F 32.0 °F 75% 30.38 in 6.2 mi West 8.1 mph - N/A   Overcast
2:46 PM 39.2 °F 32.5 °F 32.0 °F 75% 30.38 in 6.2 mi WNW 10.4 mph - N/A   Overcast
2:53 PM 42.8 °F 37.5 °F 32.0 °F 66% 30.38 in 6.2 mi WNW 9.2 mph - N/A Rain Light Rain
2:54 PM 42.8 °F 37.5 °F 32.0 °F 66% 30.38 in 6.2 mi WNW 9.2 mph - N/A   Light Drizzle
2:58 PM 43.3 °F 37.7 °F 33.4 °F 68% 30.40 in 6.2 mi WNW 10.4 mph - 0.00 in   Light Drizzle
2:59 PM 42.8 °F 37.5 °F 32.0 °F 66% 30.38 in 6.2 mi WNW 9.2 mph - N/A Rain Light Rain
3:10 PM 44.6 °F 39.2 °F 32.0 °F 61% 30.38 in 6.2 mi NW 10.4 mph - N/A   Overcast
3:18 PM 46.4 °F 41.9 °F 32.0 °F 57% 30.37 in 6.2 mi WNW 9.2 mph - N/A   Overcast
3:19 PM 46.4 °F 41.9 °F 32.0 °F 57% 30.37 in 6.2 mi WNW 9.2 mph - N/A   Overcast
3:22 PM 46.4 °F 41.9 °F 32.0 °F 57% 30.37 in 6.2 mi WNW 9.2 mph - N/A   Overcast
3:32 PM 44.6 °F 40.2 °F 33.8 °F 66% 30.37 in 6.2 mi NW 8.1 mph - N/A   Overcast
3:50 PM 39.2 °F 35.0 °F 32.0 °F 75% 30.37 in 6.2 mi Variable 5.8 mph - N/A   Overcast
3:52 PM 39.2 °F 34.2 °F 32.0 °F 75% 30.37 in 6.2 mi WNW 6.9 mph - N/A   Overcast
3:58 PM 39.0 °F 34.8 °F 31.8 °F 75% 30.40 in 6.2 mi NW 5.8 mph - 0.00 in   Overcast
4:01 PM 39.2 °F 34.2 °F 32.0 °F 75% 30.37 in 6.2 mi WNW 6.9 mph - N/A   Overcast
4:58 PM 38.5 °F 34.1 °F 31.3 °F 75% 30.40 in 6.2 mi WNW 5.8 mph - N/A   Overcast
5:58 PM 37.4 °F 31.4 °F 32.4 °F 82% 30.40 in 6.2 mi WNW 8.1 mph - N/A   Overcast
6:02 PM 37.4 °F 32.8 °F 32.0 °F 81% 30.38 in 6.2 mi WNW 5.8 mph - N/A   Overcast
6:04 PM 37.4 °F 32.8 °F 32.0 °F 81% 30.38 in 6.2 mi WNW 5.8 mph - N/A   Overcast
6:19 PM 37.4 °F 32.8 °F 32.0 °F 81% 30.38 in 6.2 mi WNW 5.8 mph - N/A   Overcast
6:55 PM 37.4 °F 33.8 °F 32.0 °F 81% 30.38 in 6.2 mi WNW 4.6 mph - N/A   Overcast
6:56 PM 37.4 °F 33.8 °F 32.0 °F 81% 30.38 in 6.2 mi WNW 4.6 mph - N/A   Overcast
6:58 PM 37.4 °F 34.9 °F 32.0 °F 81% 30.41 in 6.2 mi WNW 3.5 mph - 0.00 in   Light Drizzle
7:05 PM 37.4 °F 32.8 °F 32.0 °F 81% 30.38 in 6.2 mi WNW 5.8 mph - N/A   Light Drizzle
7:17 PM 37.4 °F 33.8 °F 32.0 °F 81% 30.38 in 6.2 mi North 4.6 mph - N/A Rain Light Rain
7:18 PM 37.4 °F 32.8 °F 32.0 °F 81% 30.38 in 6.2 mi North 5.8 mph - N/A Rain Light Rain
7:26 PM 37.4 °F 31.4 °F 32.0 °F 81% 30.38 in 6.2 mi NNW 8.1 mph - N/A   Mostly Cloudy
7:30 PM 37.4 °F 32.1 °F 32.0 °F 81% 30.39 in 6.2 mi NNW 6.9 mph - N/A   Mostly Cloudy
7:48 PM 37.4 °F 32.8 °F 32.0 °F 81% 30.39 in 6.2 mi NNW 5.8 mph - N/A   Overcast
7:51 PM 37.4 °F 32.8 °F 32.0 °F 81% 30.39 in 6.2 mi NNW 5.8 mph - N/A   Overcast
7:58 PM 36.7 °F 32.0 °F 31.8 °F 83% 30.42 in 6.2 mi NNW 5.8 mph - 0.00 in   Overcast
8:30 PM 35.6 °F 29.2 °F 30.2 °F 81% 30.40 in 6.2 mi North 8.1 mph - N/A   Mostly Cloudy
8:34 PM 35.6 °F 29.2 °F 28.4 °F 75% 30.40 in 6.2 mi North 8.1 mph - N/A   Mostly Cloudy
8:37 PM 35.6 °F 29.2 °F 30.2 °F 81% 30.40 in 6.2 mi North 8.1 mph - N/A   Scattered Clouds
8:58 PM 35.1 °F 28.6 °F 27.0 °F 72% 30.43 in 6.2 mi North 8.1 mph - N/A   Clear
9:58 PM 33.3 °F 26.4 °F 26.4 °F 76% 30.45 in 6.2 mi North 8.1 mph - N/A   Clear
10:58 PM 33.8 °F 25.8 °F 27.1 °F 77% 30.47 in 6.2 mi North 10.4 mph - N/A   Scattered Clouds
11:58 PM 32.7 °F 27.3 °F 26.2 °F 77% 30.47 in 6.2 mi NNE 5.8 mph - N/A   Clear